DW5861 Weather Reports


time (UTC)temp
F
wind
direction
speed
knots
gust
knots
rain 1hr
in
rain 24hr
in
rain mn
in
humidity
%
barometer
mb
20260505094004 67 170 1.7 4.3 0.00 0.00 0.00 91 1007.9
20260505093504 67 178 1.7 3.5 0.00 0.00 0.00 91 1008.0
20260505093004 67 184 1.7 3.5 0.00 0.00 0.00 91 1008.1
20260505092504 67 177 1.7 3.5 0.00 0.00 0.00 91 1008.1
20260505092004 67 169 1.7 5.2 0.00 0.00 0.00 91 1008.2
20260505091504 67 165 1.7 5.2 0.00 0.00 0.00 91 1008.2
20260505091004 67 166 1.7 4.3 0.00 0.00 0.00 91 1008.3
20260505090504 67 170 1.7 4.3 0.00 0.00 0.00 91 1008.3
20260505090004 67 169 1.7 5.2 0.00 0.00 0.00 91 1008.3
20260505085504 67 167 1.7 5.2 0.00 0.00 0.00 91 1008.3
20260505085025 66 168 1.7 3.5 0.00 0.00 0.00 91 1008.2
20260505084525 66 171 1.7 6.1 0.00 0.00 0.00 91 1008.3
20260505084004 66 181 1.7 6.1 0.00 0.00 0.00 91 1008.4
20260505083504 66 187 0.9 2.6 0.00 0.00 0.00 91 1008.4
20260505083004 66 177 0.9 3.5 0.00 0.00 0.00 91 1008.4
20260505082504 66 175 0.9 3.5 0.00 0.00 0.00 91 1008.4
20260505082004 66 186 0.9 2.6 0.00 0.00 0.00 90 1008.5
20260505081504 66 184 0.9 2.6 0.00 0.00 0.00 90 1008.6
20260505081004 66 178 0.9 2.6 0.00 0.00 0.00 90 1008.6
20260505080525 66 176 0.9 2.6 0.00 0.00 0.00 90 1008.7
20260505080025 66 186 0.9 1.7 0.00 0.00 0.00 90 1008.7
20260505075504 66 185 0.9 2.6 0.00 0.00 0.00 89 1008.8
20260505075025 66 177 0.9 2.6 0.00 0.00 0.00 89 1008.7
20260505074504 66 174 0.9 1.7 0.00 0.00 0.00 89 1008.8
20260505074025 66 173 0.9 2.6 0.00 0.00 0.00 88 1008.7
20260505073504 66 176 0.9 2.6 0.00 0.00 0.00 88 1008.8
20260505073025 66 181 0.9 1.7 0.00 0.00 0.00 88 1008.8
20260505072504 66 186 0.9 2.6 0.00 0.00 0.00 88 1008.8
20260505072004 66 184 0.9 2.6 0.00 0.00 0.00 88 1008.9
20260505071504 66 184 0.9 1.7 0.00 0.00 0.00 87 1008.9
20260505071004 67 187 0.9 2.6 0.00 0.00 0.00 87 1009.0
20260505070504 67 185 0.9 2.6 0.00 0.00 0.00 87 1009.2
20260505070004 67 186 0.9 5.2 0.00 0.00 0.00 87 1009.2
20260505065525 67 184 0.9 5.2 0.00 0.00 0.00 87 1009.1
20260505065004 67 181 0.9 2.6 0.00 0.00 0.00 86 1009.1
20260505064525 67 182 1.7 3.5 0.00 0.00 0.00 86 1009.1
20260505064004 68 185 0.9 3.5 0.00 0.00 0.00 86 1009.3
20260505063504 68 185 0.9 2.6 0.00 0.00 0.00 86 1009.4
20260505063004 68 181 0.9 3.5 0.00 0.00 0.00 85 1009.4
20260505062504 68 179 1.7 3.5 0.00 0.00 0.00 85 1009.5
20260505062004 68 183 1.7 3.5 0.00 0.00 0.00 85 1009.6
20260505061525 68 188 1.7 3.5 0.00 0.00 0.00 85 1009.4
20260505061025 68 183 1.7 5.2 0.00 0.00 0.00 85 1009.4
20260505060504 68 181 1.7 5.2 0.00 0.00 0.00 84 1009.4
20260505060025 68 185 1.7 4.3 0.00 0.00 0.00 84 1009.4
20260505055504 68 191 1.7 4.3 0.00 0.00 0.00 84 1009.4
20260505055004 68 181 1.7 5.2 0.00 0.00 0.00 84 1009.3
20260505054525 68 173 2.6 5.2 0.00 0.00 0.00 84 1009.3
20260505054025 68 177 2.6 5.2 0.00 0.00 0.00 83 1009.4
20260505053525 68 177 2.6 6.1 0.00 0.00 0.00 83 1009.5
20260505053004 69 167 2.6 6.1 0.00 0.00 0.00 83 1009.5
20260505052504 69 165 2.6 6.1 0.00 0.00 0.00 83 1009.4
20260505052004 69 168 2.6 6.1 0.00 0.00 0.00 83 1009.5
20260505051504 69 167 2.6 6.1 0.00 0.00 0.00 82 1009.5
20260505051025 69 165 2.6 7.8 0.00 0.00 0.00 82 1009.6
20260505050504 69 171 2.6 7.8 0.00 0.00 0.00 82 1009.6
20260505041504 70 176 2.6 7.8 0.00 0.00 0.00 79 1009.9
20260505041004 70 182 2.6 7.8 0.00 0.00 0.00 79 1009.8
20260505040504 70 179 2.6 5.2 0.00 0.00 0.00 79 1009.7
20260505040005 70 179 2.6 6.1 0.00 0.00 0.00 78 1009.9
20260505035504 70 182 2.6 6.1 0.00 0.00 0.00 78 1010.1
20260505035004 70 184 1.7 5.2 0.00 0.00 0.00 78 1010.0
20260505034504 70 188 2.6 7.0 0.00 0.00 0.00 77 1010.0
20260505034004 70 180 2.6 7.8 0.00 0.00 0.00 77 1009.8
20260505033504 70 170 2.6 7.8 0.00 0.00 0.00 77 1009.8
20260505033004 71 179 2.6 6.1 0.00 0.00 0.00 77 1009.9
20260505032504 71 175 2.6 7.0 0.00 0.00 0.00 77 1009.8
20260505032004 71 171 2.6 7.0 0.00 0.00 0.00 76 1009.6
20260505031504 71 182 2.6 7.0 0.00 0.00 0.00 76 1009.6
20260505031004 71 178 2.6 6.1 0.00 0.00 0.00 76 1009.8
20260505030504 71 169 2.6 7.0 0.00 0.00 0.00 76 1009.7
20260505030004 71 170 2.6 7.0 0.00 0.00 0.00 76 1009.8
20260505025504 71 173 2.6 5.2 0.00 0.00 0.00 76 1010.0
20260505025004 71 176 1.7 5.2 0.00 0.00 0.00 75 1010.0
20260505024504 71 182 2.6 6.1 0.00 0.00 0.00 75 1009.9
20260505024004 71 179 2.6 7.0 0.00 0.00 0.00 75 1010.0
20260505023504 71 175 2.6 7.0 0.00 0.00 0.00 75 1009.8
20260505023004 72 185 2.6 7.0 0.00 0.00 0.00 75 1009.8
20260505022504 72 179 2.6 8.7 0.00 0.00 0.00 75 1009.8
20260505022004 72 172 2.6 8.7 0.00 0.00 0.00 75 1009.6
20260505021504 72 173 2.6 4.3 0.00 0.00 0.00 75 1009.6
20260505021004 72 172 2.6 7.0 0.00 0.00 0.00 74 1009.6
20260505020525 72 175 2.6 7.0 0.00 0.00 0.00 74 1009.5
20260505020004 72 179 2.6 7.0 0.00 0.00 0.00 74 1009.4
20260505015504 72 178 2.6 7.8 0.00 0.00 0.00 74 1009.4
20260505015004 72 174 2.6 7.8 0.00 0.00 0.00 73 1009.2
20260505014504 72 168 2.6 7.0 0.00 0.00 0.00 73 1009.2
20260505014004 73 164 1.7 7.0 0.00 0.00 0.00 72 1009.3
20260505013525 73 159 1.7 6.1 0.00 0.00 0.00 72 1009.3
20260505013007 73 168 1.7 6.1 0.00 0.00 0.00 72 1009.3
20260505012504 73 175 2.6 6.1 0.00 0.00 0.00 71 1009.2
20260505012024 74 172 2.6 6.1 0.00 0.00 0.00 71 1009.1
20260505011504 74 168 2.6 7.8 0.00 0.00 0.00 70 1008.9
20260505011025 74 167 2.6 7.8 0.00 0.00 0.00 70 1009.0
20260505010504 74 169 1.7 6.1 0.00 0.00 0.00 70 1008.9
20260505010004 75 163 1.7 6.1 0.00 0.00 0.00 69 1008.9
20260505005504 75 154 1.7 6.1 0.00 0.00 0.00 69 1008.9
20260505005025 75 159 1.7 6.1 0.00 0.00 0.00 68 1008.8
20260505004504 75 179 1.7 3.5 0.00 0.00 0.00 68 1009.0
20260505004004 76 176 2.6 5.2 0.00 0.00 0.00 67 1009.0
20260505003504 76 174 2.6 5.2 0.00 0.00 0.00 67 1009.1
20260505003004 76 180 1.7 5.2 0.00 0.00 0.00 66 1009.2
20260505002504 76 188 1.7 4.3 0.00 0.00 0.00 66 1009.1
20260505002004 77 185 1.7 4.3 0.00 0.00 0.00 65 1009.2
20260505001504 77 187 2.6 6.1 0.00 0.00 0.00 65 1009.2
20260505001004 77 187 2.6 7.0 0.00 0.00 0.00 65 1009.3
20260505000525 77 181 2.6 7.0 0.00 0.00 0.00 64 1009.2
20260505000004 78 180 2.6 7.0 0.00 0.00 0.00 63 1009.5
20260504235504 78 187 2.6 6.1 0.00 0.00 0.00 63 1009.4
20260504235004 78 192 2.6 6.1 0.00 0.00 0.00 62 1009.4
20260504234504 78 180 2.6 6.1 0.00 0.00 0.00 61 1009.4
20260504234004 79 169 2.6 7.0 0.00 0.00 0.00 61 1009.3
20260504233503 79 171 2.6 7.0 0.00 0.00 0.00 60 1009.4
20260504233025 79 185 2.6 6.1 0.00 0.00 0.00 61 1009.5
20260504232504 79 188 2.6 6.1 0.00 0.00 0.00 61 1009.4
20260504232025 80 178 2.6 5.2 0.00 0.00 0.00 59 1009.5
20260504231525 80 174 2.6 5.2 0.00 0.00 0.00 59 1009.7
20260504231004 80 173 3.5 7.8 0.00 0.00 0.00 59 1009.7
20260504230525 80 169 3.5 7.8 0.00 0.00 0.00 58 1009.8
20260504230004 80 163 3.5 10.4 0.00 0.00 0.00 58 1009.7
20260504225504 80 174 2.6 10.4 0.00 0.00 0.00 57 1009.6
20260504225004 80 168 3.5 8.7 0.00 0.00 0.00 57 1009.6
20260504224504 81 161 4.3 9.6 0.00 0.00 0.00 55 1009.8
20260504224025 81 160 3.5 9.6 0.00 0.00 0.00 55 1009.8
20260504223504 82 162 2.6 7.0 0.00 0.00 0.00 55 1009.9
20260504223025 82 171 2.6 7.8 0.00 0.00 0.00 55 1009.9
20260504222525 82 165 3.5 9.6 0.00 0.00 0.00 55 1009.9
20260504222025 82 167 3.5 9.6 0.00 0.00 0.00 54 1010.1
20260504221504 82 182 2.6 7.8 0.00 0.00 0.00 54 1010.2
20260504221007 82 181 2.6 8.7 0.00 0.00 0.00 53 1010.3
20260504220504 82 178 2.6 8.7 0.00 0.00 0.00 52 1010.3
20260504220024 82 200 2.6 7.0 0.00 0.00 0.00 53 1010.3
20260504215505 83 206 2.6 7.0 0.00 0.00 0.00 52 1010.3
20260504215004 83 191 3.5 8.7 0.00 0.00 0.00 51 1010.4
20260504214504 83 179 3.5 8.7 0.00 0.00 0.00 52 1010.3
20260504214025 84 180 4.3 8.7 0.00 0.00 0.00 50 1010.5
20260504213504 84 172 3.5 8.7 0.00 0.00 0.00 48 1010.4
20260504213003 85 171 2.6 7.8 0.00 0.00 0.00 48 1010.4
20260504212525 85 182 3.5 7.8 0.00 0.00 0.00 50 1010.5
20260504212004 84 181 3.5 7.8 0.00 0.00 0.00 47 1010.6
20260504211504 84 186 3.5 9.6 0.00 0.00 0.00 47 1010.9
20260504211003 84 187 3.5 9.6 0.00 0.00 0.00 48 1011.0
20260504210504 84 184 2.6 7.8 0.00 0.00 0.00 48 1011.1
20260504210004 84 178 3.5 8.7 0.00 0.00 0.00 48 1011.3
20260504205524 85 185 3.5 8.7 0.00 0.00 0.00 48 1011.3
20260504205004 85 180 2.6 7.8 0.00 0.00 0.00 48 1011.2
20260504204504 85 169 3.5 7.0 0.00 0.00 0.00 48 1011.3
20260504204003 84 170 3.5 8.7 0.00 0.00 0.00 47 1011.4
20260504203503 84 175 3.5 8.7 0.00 0.00 0.00 48 1011.4
20260504203003 84 187 3.5 7.8 0.00 0.00 0.00 46 1011.6
20260504202524 85 200 2.6 7.0 0.00 0.00 0.00 47 1011.6
20260504202004 84 190 2.6 8.7 0.00 0.00 0.00 47 1011.8
20260504201504 84 196 2.6 8.7 0.00 0.00 0.00 47 1012.1
20260504201004 84 208 2.6 6.1 0.00 0.00 0.00 47 1012.2
20260504200504 85 195 3.5 6.1 0.00 0.00 0.00 46 1012.2
20260504200004 84 196 4.3 9.6 0.00 0.00 0.00 45 1012.1
20260504195504 84 181 4.3 9.6 0.00 0.00 0.00 45 1012.3
20260504195004 84 167 3.5 8.7 0.00 0.00 0.00 45 1012.4
20260504194504 85 176 3.5 6.1 0.00 0.00 0.00 45 1012.4
20260504194004 84 187 3.5 7.0 0.00 0.00 0.00 47 1012.4
20260504193525 84 189 3.5 7.8 0.00 0.00 0.00 45 1012.5
20260504193004 84 177 3.5 7.8 0.00 0.00 0.00 46 1012.7
20260504192504 84 177 3.5 7.8 0.00 0.00 0.00 43 1012.8
20260504192004 84 177 3.5 7.0 0.00 0.00 0.00 43 1012.7
20260504191504 84 170 2.6 7.0 0.00 0.00 0.00 45 1012.7
20260504191025 85 191 2.6 7.0 0.00 0.00 0.00 45 1012.9
20260504190504 83 182 2.6 7.8 0.00 0.00 0.00 43 1013.1
20260504190004 84 159 2.6 7.8 0.00 0.00 0.00 42 1013.1
20260504185504 84 175 3.5 7.8 0.00 0.00 0.00 41 1013.2
20260504185004 84 174 3.5 9.6 0.00 0.00 0.00 39 1013.2
20260504184504 84 160 3.5 9.6 0.00 0.00 0.00 40 1013.4
20260504184004 84 163 2.6 8.7 0.00 0.00 0.00 41 1013.4
20260504183503 84 178 3.5 7.0 0.00 0.00 0.00 41 1013.5
20260504183003 83 193 2.6 5.2 0.00 0.00 0.00 44 1013.5
20260504182503 82 179 2.6 8.7 0.00 0.00 0.00 42 1013.6
20260504182003 81 175 3.5 8.7 0.00 0.00 0.00 43 1013.4
20260504181503 82 176 3.5 9.6 0.00 0.00 0.00 40 1013.7
20260504181024 83 183 3.5 9.6 0.00 0.00 0.00 45 1013.9
20260504180504 82 197 3.5 10.4 0.00 0.00 0.00 42 1013.9
20260504180004 81 188 3.5 10.4 0.00 0.00 0.00 47 1014.1
20260504175503 81 183 3.5 8.7 0.00 0.00 0.00 42 1014.4
20260504175024 82 191 2.6 7.0 0.00 0.00 0.00 44 1014.5
20260504174524 81 202 2.6 7.0 0.00 0.00 0.00 46 1014.3
20260504174024 81 206 2.6 7.8 0.00 0.00 0.00 46 1014.4
20260504173503 81 186 3.5 7.8 0.00 0.00 0.00 44 1014.4
20260504173003 81 179 3.5 7.0 0.00 0.00 0.00 47 1014.5
20260504172524 80 176 2.6 7.0 0.00 0.00 0.00 46 1014.5
20260504172004 81 174 3.5 7.8 0.00 0.00 0.00 47 1014.6
20260504171504 81 178 3.5 7.8 0.00 0.00 0.00 47 1014.7
20260504171003 80 180 2.6 6.1 0.00 0.00 0.00 47 1014.7
20260504170531 80 174 2.6 9.6 0.00 0.00 0.00 46 1014.9
20260504151006 74 184 3.5 9.6 0.00 0.00 0.00 59 1015.6
20260504150524 74 187 2.6 7.0 0.00 0.00 0.00 61 1015.7
20260504141003 68 183 2.6 5.2 0.00 0.00 0.00 72 1016.1
20260504140524 67 189 1.7 4.3 0.00 0.00 0.00 75 1016.1
20260504130503 57 183 0.9 3.5 0.00 0.00 0.00 90 1015.9
20260504110525 52 166 0.0 0.9 0.00 0.00 0.00 90 1015.5
20260504100525 53 202 0.0 0.9 0.00 0.00 0.00 90 1015.9